period_start,C,m1,H,J0,J1,J2,J3,J4,J5,JA,JB,JC,JD,JJ,JK,JN,#
2017-11-20 00:02:10,0.03,1.95,0.00,19.07,22.16,25.22,14.12,48.71,1018.57,2049.94,2693.10,2665.99,2941.48,599.90,605.01,43.25,0000 0000 0000 0000 000000
2017-11-20 00:07:11,-0.02,1.95,0.00,19.06,22.17,25.18,14.20,48.73,1018.57,2049.59,2692.80,2665.74,2941.01,600.17,605.36,43.30,0000 0000 0000 0000 000000
2017-11-20 00:12:13,0.02,1.95,0.00,19.04,22.19,25.21,14.20,48.87,1018.53,2049.34,2692.06,2665.07,2940.79,599.82,605.05,43.35,0000 0000 0000 0000 000000
2017-11-20 00:17:14,0.01,1.95,0.00,19.09,22.21,25.24,14.21,48.77,1018.47,2049.09,2691.64,2664.99,2940.06,600.14,605.21,43.40,0000 0000 0000 0000 000000
2017-11-20 00:22:15,0.02,1.95,0.00,19.05,22.22,25.27,14.15,48.90,1018.32,2049.05,2691.02,2664.65,2939.97,599.72,604.82,43.45,0000 0000 0000 0000 000000
2017-11-20 00:27:17,0.03,1.95,0.00,19.10,22.24,25.32,14.16,48.92,1018.12,2049.01,2690.65,2664.04,2939.35,599.68,604.61,43.50,0000 0000 0000 0000 000000
2017-11-20 00:32:18,0.01,1.96,0.00,19.08,22.25,25.32,14.12,48.76,1018.09,2049.01,2690.03,2664.00,2939.01,600.12,605.09,43.55,0000 0000 0000 0000 000000
2017-11-20 00:37:19,0.00,1.96,0.00,19.12,22.27,25.34,14.20,48.88,1018.08,2049.00,2689.97,2663.98,2938.98,600.17,605.07,43.60,0000 0000 0000 0000 000000
2017-11-20 00:42:20,0.04,1.96,0.00,19.09,22.28,25.30,14.16,48.84,1018.08,2049.00,2689.48,2663.81,2938.59,600.02,604.91,43.65,0000 0000 0000 0000 000000
2017-11-20 00:47:22,0.02,1.96,0.00,19.08,22.29,25.37,14.05,48.92,1018.08,2048.99,2689.02,2663.21,2938.04,599.55,604.48,43.70,0000 0000 0000 0000 000000
2017-11-20 00:52:23,0.00,1.96,0.00,19.13,22.31,25.41,14.21,48.85,1018.08,2048.98,2688.97,2663.02,2938.00,600.26,604.95,43.75,0000 0000 0000 0000 000000
2017-11-20 00:57:24,0.01,1.96,0.00,19.11,22.32,25.37,14.14,48.83,1018.08,2048.98,2688.50,2663.00,2937.99,600.08,604.83,43.80,0000 0000 0000 0000 000000
2017-11-20 01:02:25,0.01,1.96,0.00,19.16,22.34,25.39,14.09,48.83,1018.05,2048.98,2688.01,2662.99,2937.64,599.46,604.17,43.85,0000 0000 0000 0000 000000
2017-11-20 01:07:26,0.01,1.96,0.00,19.12,22.35,25.40,14.20,48.90,1017.91,2048.98,2687.95,2662.94,2937.09,599.99,604.71,43.91,0000 0000 0000 0000 000000
2017-11-20 01:12:28,0.04,1.96,0.00,19.13,22.37,25.43,14.14,48.81,1017.69,2048.95,2687.25,2662.44,2937.00,600.08,604.65,43.96,0000 0000 0000 0000 000000
2017-11-20 01:17:29,-0.00,1.96,0.00,19.14,22.38,25.43,14.20,48.83,1017.62,2048.89,2687.00,2662.03,2936.96,599.90,604.40,44.01,0000 0000 0000 0000 000000
2017-11-20 01:22:30,-0.01,1.96,0.00,19.16,22.39,25.45,14.11,48.86,1017.59,2048.57,2686.86,2662.00,2936.53,599.54,604.06,44.06,0000 0000 0000 0000 000000
2017-11-20 01:27:32,0.03,1.96,0.00,19.10,22.40,25.49,14.19,48.87,1017.59,2048.63,2686.20,2662.00,2936.08,599.93,604.41,44.11,0000 0000 0000 0000 000000
2017-11-20 01:32:33,-0.03,1.96,0.00,19.17,22.42,25.50,14.12,48.86,1017.59,2048.32,2686.01,2661.97,2936.00,599.95,604.30,44.16,0000 0000 0000 0000 000000
2017-11-20 01:37:34,0.01,1.96,0.00,19.17,22.42,25.50,14.21,48.92,1017.57,2048.20,2685.90,2661.75,2935.99,600.16,604.60,44.21,0000 0000 0000 0000 000000
2017-11-20 01:42:35,0.02,1.96,0.00,19.21,22.44,25.55,14.25,48.80,1017.47,2048.08,2685.16,2661.13,2935.84,600.42,604.66,44.26,0000 0000 0000 0000 000000
2017-11-20 01:47:36,0.01,1.96,0.00,19.19,22.45,25.55,14.19,48.88,1017.21,2048.05,2684.96,2661.01,2935.20,599.85,603.89,44.31,0000 0000 0000 0000 000000
2017-11-20 01:52:38,0.02,1.97,0.00,19.24,22.47,25.51,14.16,48.84,1017.14,2048.05,2684.15,2660.94,2934.98,600.21,604.23,44.36,0000 0000 0000 0000 000000
2017-11-20 01:57:39,0.06,1.97,0.00,19.21,22.47,25.51,14.16,48.91,1017.11,2048.02,2683.61,2660.20,2934.26,600.31,604.42,44.41,0000 0000 0000 0000 000000
2017-11-20 02:02:40,0.01,1.97,0.00,19.25,22.49,25.57,14.14,48.83,1017.11,2048.04,2683.02,2660.00,2934.00,599.76,603.74,44.46,0000 0000 0000 0000 000000
2017-11-20 02:07:42,0.03,1.97,0.00,19.24,22.49,25.55,14.12,48.85,1017.11,2048.01,2682.48,2659.93,2933.73,599.82,603.86,44.51,0000 0000 0000 0000 000000
2017-11-20 02:12:43,0.04,1.97,0.00,19.25,22.51,25.57,14.15,48.84,1017.11,2048.01,2681.87,2659.22,2933.05,599.90,603.81,44.56,0000 0000 0000 0000 000000
2017-11-20 02:17:44,0.02,1.97,0.00,19.21,22.52,25.63,14.15,48.87,1017.07,2048.00,2681.04,2658.99,2932.80,600.02,604.11,44.61,0000 0000 0000 0000 000000
2017-11-20 02:22:46,0.05,1.98,0.00,19.25,22.53,25.67,14.17,48.88,1017.03,2048.00,2680.21,2658.54,2932.05,600.13,604.11,44.66,0000 0000 0000 0000 000000
2017-11-20 02:27:47,0.00,1.98,0.00,19.24,22.54,25.63,14.16,48.82,1016.80,2048.00,2679.98,2658.06,2931.99,600.06,603.86,44.71,0000 0000 0000 0000 000000
2017-11-20 02:32:48,0.00,1.98,0.00,19.24,22.54,25.68,14.17,48.78,1016.63,2048.00,2679.74,2658.01,2931.96,600.55,604.24,44.76,0000 0000 0000 0000 000000
2017-11-20 02:37:49,0.02,1.98,0.00,19.28,22.56,25.66,14.13,48.91,1016.62,2047.99,2679.06,2658.00,2931.51,600.36,604.04,44.81,0000 0000 0000 0000 000000
2017-11-20 02:42:51,0.00,1.98,0.00,19.31,22.57,25.64,14.09,48.87,1016.62,2047.99,2679.00,2657.98,2931.06,599.83,603.42,44.87,0000 0000 0000 0000 000000
2017-11-20 02:47:52,0.00,1.98,0.00,19.28,22.58,25.67,14.16,48.84,1016.62,2047.98,2678.93,2657.98,2931.01,600.04,603.69,44.92,0000 0000 0000 0000 000000
2017-11-20 02:52:54,0.02,1.98,0.00,19.27,22.59,25.65,14.19,48.85,1016.62,2047.98,2678.18,2657.84,2930.99,600.12,603.81,44.97,0000 0000 0000 0000 000000
2017-11-20 02:57:55,0.01,1.98,0.00,19.33,22.60,25.71,14.16,48.90,1016.61,2047.97,2678.01,2657.49,2930.97,600.25,603.77,45.02,0000 0000 0000 0000 000000
2017-11-20 03:02:56,0.01,1.98,0.00,19.30,22.62,25.69,14.09,48.94,1016.58,2047.94,2677.99,2657.10,2930.64,599.76,603.34,45.07,0000 0000 0000 0000 000000
2017-11-20 03:07:57,0.00,1.98,0.00,19.31,22.62,25.67,14.16,48.90,1016.28,2047.91,2677.89,2657.03,2930.12,600.18,603.42,45.12,0000 0000 0000 0000 000000
2017-11-20 03:12:58,-0.00,1.98,0.00,19.33,22.63,25.71,14.13,48.88,1016.17,2047.77,2677.15,2657.00,2930.01,599.84,603.07,45.17,0000 0000 0000 0000 000000
2017-11-20 03:17:59,0.01,1.98,0.00,19.36,22.64,25.73,14.16,48.88,1016.18,2047.61,2677.00,2657.00,2930.00,600.02,603.20,45.22,0000 0000 0000 0000 000000
2017-11-20 03:23:01,-0.04,1.98,0.00,19.33,22.64,25.72,14.13,48.92,1016.18,2047.33,2676.90,2656.99,2929.96,600.19,603.30,45.27,0000 0000 0000 0000 000000
2017-11-20 03:28:02,0.02,1.98,0.00,19.34,22.65,25.74,14.21,48.90,1016.15,2047.20,2676.20,2656.99,2929.78,600.45,603.71,45.32,0000 0000 0000 0000 000000
2017-11-20 03:33:03,0.01,1.98,0.00,19.34,22.67,25.68,14.09,48.85,1016.13,2047.12,2676.00,2656.99,2929.17,600.01,603.15,45.37,0000 0000 0000 0000 000000
2017-11-20 03:38:04,0.00,1.98,0.00,19.35,22.67,25.73,14.15,48.84,1016.13,2047.07,2675.87,2656.82,2929.00,600.02,603.20,45.42,0000 0000 0000 0000 000000
2017-11-20 03:43:06,0.03,1.98,0.00,19.34,22.67,25.77,14.14,48.76,1016.02,2047.02,2675.13,2656.33,2928.99,600.12,603.32,45.47,0000 0000 0000 0000 000000
2017-11-20 03:48:07,0.01,1.98,0.00,19.36,22.69,25.75,14.12,48.90,1015.77,2047.02,2675.00,2656.06,2928.94,599.54,602.60,45.52,0000 0000 0000 0000 000000
2017-11-20 03:53:08,0.02,1.99,0.00,19.30,22.69,25.82,14.14,48.91,1015.66,2047.04,2674.66,2656.01,2928.41,599.89,602.93,45.57,0000 0000 0000 0000 000000
2017-11-20 03:58:10,0.01,1.99,0.00,19.33,22.70,25.89,14.17,48.88,1015.66,2047.03,2674.05,2656.00,2928.03,600.27,603.27,45.62,0000 0000 0000 0000 000000
2017-11-20 04:03:11,0.00,1.99,0.00,19.36,22.71,25.82,14.10,48.78,1015.65,2047.01,2673.89,2655.99,2927.99,599.46,602.43,45.67,0000 0000 0000 0000 000000
2017-11-20 04:08:12,0.02,1.99,0.00,19.38,22.72,25.88,14.08,48.82,1015.65,2047.00,2673.12,2655.96,2927.92,599.96,602.84,45.72,0000 0000 0000 0000 000000
2017-11-20 04:13:14,0.03,1.99,0.00,19.37,22.72,25.90,14.12,48.92,1015.64,2047.00,2672.99,2655.63,2927.27,600.01,602.89,45.77,0000 0000 0000 0000 000000
2017-11-20 04:18:15,0.03,1.99,0.00,19.38,22.73,25.89,14.09,48.92,1015.61,2047.00,2672.42,2655.15,2927.02,600.11,603.00,45.83,0000 0000 0000 0000 000000
2017-11-20 04:23:17,0.00,1.99,0.00,19.45,22.74,25.88,14.09,48.89,1015.43,2047.00,2671.92,2655.01,2926.96,599.44,601.94,45.88,0000 0000 0000 0000 000000
2017-11-20 04:28:18,0.03,1.99,0.00,19.42,22.74,25.86,14.12,48.89,1015.32,2047.00,2671.15,2654.98,2926.38,599.99,602.63,45.93,0000 0000 0000 0000 000000
2017-11-20 04:33:19,0.00,1.99,0.00,19.41,22.74,25.92,14.13,48.92,1015.22,2047.00,2670.95,2654.93,2926.01,600.12,602.63,45.98,0000 0000 0000 0000 000000
2017-11-20 04:38:20,0.04,2.00,0.00,19.41,22.75,25.87,14.17,48.86,1015.18,2047.00,2670.14,2654.28,2925.96,600.15,602.66,46.03,0000 0000 0000 0000 000000
2017-11-20 04:43:21,0.02,2.00,0.00,19.43,22.76,25.89,14.06,48.84,1015.16,2047.00,2669.73,2654.01,2925.49,599.89,602.35,46.08,0000 0000 0000 0000 000000
2017-11-20 04:48:22,0.01,2.00,0.00,19.42,22.77,25.92,14.12,48.93,1015.15,2047.00,2669.04,2654.00,2925.03,600.06,602.61,46.13,0000 0000 0000 0000 000000
2017-11-20 04:53:24,0.02,2.00,0.00,19.42,22.77,25.93,14.15,49.02,1015.15,2047.00,2668.46,2653.97,2924.98,600.03,602.39,46.18,0000 0000 0000 0000 000000
2017-11-20 04:58:25,0.02,2.00,0.00,19.42,22.77,25.94,14.16,48.91,1015.15,2047.00,2668.01,2653.73,2924.67,600.07,602.48,46.23,0000 0000 0000 0000 000000
2017-11-20 05:03:27,0.04,2.00,0.00,19.42,22.78,26.00,14.07,48.93,1015.15,2047.00,2667.69,2653.10,2924.04,599.35,601.72,46.28,0000 0000 0000 0000 000000
2017-11-20 05:08:28,0.01,2.00,0.00,19.41,22.79,25.98,14.18,48.98,1015.15,2047.00,2667.03,2653.01,2924.00,600.12,602.69,46.33,0000 0000 0000 0000 000000
2017-11-20 05:13:29,0.03,2.00,0.00,19.42,22.79,26.00,14.14,48.98,1015.14,2047.00,2666.52,2652.99,2923.58,600.00,602.46,46.38,0000 0000 0000 0000 000000
2017-11-20 05:18:31,0.02,2.01,0.00,19.42,22.79,25.99,14.13,49.01,1015.15,2047.00,2665.95,2652.69,2923.01,599.91,602.35,46.43,0000 0000 0000 0000 000000
2017-11-20 05:23:32,0.03,2.01,0.00,19.38,22.80,26.00,14.16,48.96,1015.11,2047.00,2665.22,2652.13,2922.96,600.39,602.74,46.48,0000 0000 0000 0000 000000
2017-11-20 05:28:33,0.03,2.01,0.00,19.42,22.80,26.07,14.15,48.97,1014.92,2047.00,2664.55,2652.00,2922.24,600.20,602.47,46.53,0000 0000 0000 0000 000000
2017-11-20 05:33:34,0.04,2.01,0.00,19.40,22.82,26.03,14.22,48.95,1014.86,2047.00,2663.79,2651.48,2921.84,600.40,602.74,46.58,0000 0000 0000 0000 000000
2017-11-20 05:38:36,0.03,2.01,0.00,19.43,22.82,26.07,14.16,49.05,1014.72,2047.00,2662.99,2651.01,2921.09,600.32,602.43,46.63,0000 0000 0000 0000 000000
2017-11-20 05:43:37,0.03,2.02,0.00,19.39,22.82,26.09,14.20,48.92,1014.68,2047.00,2662.14,2650.80,2920.93,600.21,602.46,46.68,0000 0000 0000 0000 000000
2017-11-20 05:48:38,0.04,2.02,0.00,19.44,22.82,26.09,14.14,49.09,1014.69,2047.00,2661.70,2650.08,2920.14,600.08,602.11,46.73,0000 0000 0000 0000 000000
2017-11-20 05:53:39,0.01,2.02,0.00,19.38,22.82,26.08,14.11,49.17,1014.73,2047.00,2660.98,2649.98,2919.91,599.95,602.26,46.78,0000 0000 0000 0000 000000
2017-11-20 05:58:40,0.05,2.02,0.00,19.39,22.83,26.09,14.11,49.13,1014.73,2047.00,2660.18,2649.69,2919.15,599.83,602.19,46.84,0000 0000 0000 0000 000000
2017-11-20 06:03:41,0.02,2.02,0.00,19.47,22.84,26.07,14.16,49.02,1014.68,2047.00,2659.91,2649.13,2919.00,600.21,602.20,46.89,0000 0000 0000 0000 000000
2017-11-20 06:08:43,0.03,2.02,0.00,19.46,22.84,26.06,14.12,49.08,1014.67,2047.00,2659.11,2649.01,2918.54,600.08,602.31,46.94,0000 0000 0000 0000 000000
2017-11-20 06:13:44,0.00,2.02,0.00,19.48,22.84,26.11,14.20,49.16,1014.67,2047.00,2658.95,2649.00,2918.05,600.24,602.36,46.99,0000 0000 0000 0000 000000
2017-11-20 06:18:45,0.02,2.03,0.00,19.45,22.85,26.06,14.13,49.20,1014.66,2047.00,2658.12,2648.98,2917.98,599.76,601.97,47.04,0000 0000 0000 0000 000000
2017-11-20 06:23:47,0.03,2.03,0.00,19.49,22.85,26.04,14.11,49.18,1014.66,2047.00,2657.77,2648.83,2917.60,600.19,602.19,47.09,0000 0000 0000 0000 000000
2017-11-20 06:28:48,0.03,2.03,0.00,19.48,22.87,26.06,14.12,49.12,1014.66,2047.00,2657.04,2648.18,2917.02,600.10,602.04,47.14,0000 0000 0000 0000 000000
2017-11-20 06:33:49,0.01,2.03,0.00,19.46,22.87,26.11,14.15,49.13,1014.66,2047.00,2656.68,2648.03,2916.98,599.88,601.97,47.19,0000 0000 0000 0000 000000
2017-11-20 06:38:50,0.02,2.03,0.00,19.50,22.87,26.14,14.07,49.19,1014.66,2047.00,2656.03,2648.00,2916.53,599.82,601.86,47.24,0000 0000 0000 0000 000000
2017-11-20 06:43:52,0.01,2.03,0.00,19.49,22.87,26.08,14.14,49.11,1014.66,2047.00,2655.73,2648.00,2916.02,600.11,602.14,47.29,0000 0000 0000 0000 000000
2017-11-20 06:48:53,0.01,2.03,0.00,19.48,22.89,26.10,14.13,49.22,1014.66,2047.00,2655.03,2647.98,2916.00,600.22,602.17,47.34,0000 0000 0000 0000 000000
2017-11-20 06:53:54,0.05,2.03,0.00,19.49,22.89,26.14,14.20,49.13,1014.66,2047.00,2654.52,2647.68,2915.50,600.28,602.37,47.39,0000 0000 0000 0000 000000
2017-11-20 06:58:56,0.02,2.04,0.00,19.48,22.89,26.06,14.13,49.23,1014.66,2047.00,2654.00,2647.11,2915.01,600.35,602.38,47.44,0000 0000 0000 0000 000000
2017-11-20 07:03:57,0.01,2.04,0.00,19.48,22.90,26.12,14.12,49.23,1014.62,2046.99,2653.33,2647.01,2914.98,600.15,602.22,47.49,0000 0000 0000 0000 000000
2017-11-20 07:08:58,0.02,2.04,0.00,19.48,22.90,26.15,14.09,49.34,1014.31,2046.99,2652.96,2647.00,2914.38,599.69,601.77,47.54,0000 0000 0000 0000 000000
2017-11-20 07:14:00,0.02,2.04,0.00,19.54,22.91,26.19,14.07,49.27,1014.19,2046.98,2652.16,2646.98,2914.01,599.62,601.27,47.59,0000 0000 0000 0000 000000
2017-11-20 07:19:01,0.02,2.04,0.00,19.52,22.92,26.16,14.05,49.26,1014.18,2046.99,2651.80,2646.82,2913.94,599.74,601.50,47.64,0000 0000 0000 0000 000000
2017-11-20 07:24:02,0.05,2.04,0.00,19.54,22.92,26.10,14.10,49.25,1014.18,2046.98,2650.94,2646.12,2913.17,599.73,601.29,47.69,0000 0000 0000 0000 000000
2017-11-20 07:29:03,0.02,2.04,0.00,19.55,22.92,26.16,14.17,49.27,1014.17,2046.99,2650.08,2646.00,2912.98,600.29,601.87,47.75,0000 0000 0000 0000 000000
2017-11-20 07:34:05,0.03,2.05,0.00,19.53,22.92,26.13,14.18,49.40,1014.17,2046.97,2649.70,2645.97,2912.38,599.80,601.54,47.80,0000 0000 0000 0000 000000
2017-11-20 07:39:06,0.03,2.05,0.00,19.56,22.94,26.15,14.12,49.37,1014.13,2046.98,2649.03,2645.47,2912.01,600.43,601.80,47.85,0000 0000 0000 0000 000000
2017-11-20 07:44:07,0.03,2.05,0.00,19.54,22.94,26.10,14.07,49.27,1013.98,2046.96,2648.33,2645.02,2911.89,599.95,601.39,47.90,0000 0000 0000 0000 000000
2017-11-20 07:49:09,0.02,2.05,0.00,19.55,22.94,26.12,14.15,49.28,1013.91,2046.98,2647.91,2645.00,2911.16,600.46,601.94,47.95,0000 0000 0000 0000 000000
2017-11-20 07:54:10,0.01,2.05,0.00,19.54,22.95,26.18,14.15,49.31,1013.93,2046.94,2647.08,2644.97,2910.98,600.13,601.63,48.00,0000 0000 0000 0000 000000
2017-11-20 07:59:12,0.05,2.05,0.00,19.58,22.95,26.17,14.12,49.36,1014.12,2046.92,2646.57,2644.38,2910.31,600.46,601.96,48.05,0000 0000 0000 0000 000000
2017-11-20 08:04:13,0.01,2.06,0.00,19.56,22.97,26.21,14.06,49.34,1014.11,2046.93,2646.01,2644.05,2910.00,599.72,601.12,48.10,0000 0000 0000 0000 000000
2017-11-20 08:09:14,0.01,2.06,0.00,19.56,22.97,26.19,14.12,49.26,1014.10,2046.84,2645.40,2644.00,2909.93,600.28,601.79,48.15,0000 0000 0000 0000 000000
2017-11-20 08:14:16,0.02,2.06,0.00,19.58,22.97,26.22,14.10,49.28,1014.02,2046.91,2644.85,2644.00,2909.31,599.98,601.44,48.20,0000 0000 0000 0000 000000
2017-11-20 08:19:17,0.02,2.06,0.00,19.56,22.97,26.20,14.11,49.21,1013.77,2046.74,2644.02,2643.47,2908.98,600.35,601.67,48.25,0000 0000 0000 0000 000000
2017-11-20 08:24:18,0.03,2.06,0.00,19.59,22.99,26.18,14.08,49.31,1013.78,2046.64,2643.23,2643.05,2908.36,599.82,601.10,48.30,0000 0000 0000 0000 000000
2017-11-20 08:29:20,0.03,2.06,0.00,19.57,22.99,26.22,14.08,49.45,1013.78,2046.79,2642.75,2643.00,2908.00,599.75,601.09,48.35,0000 0000 0000 0000 000000
2017-11-20 08:34:21,0.01,2.06,0.00,19.59,22.99,26.22,14.15,49.42,1013.82,2046.78,2642.03,2642.96,2907.83,599.85,601.33,48.40,0000 0000 0000 0000 000000
2017-11-20 08:39:22,0.03,2.06,0.00,19.61,22.99,26.25,14.15,49.40,1013.81,2046.63,2641.59,2642.68,2907.09,600.59,601.92,48.45,0000 0000 0000 0000 000000
2017-11-20 08:44:24,0.02,2.06,0.00,19.64,22.99,26.24,14.09,49.26,1013.77,2046.55,2641.00,2642.08,2906.99,599.88,600.98,48.50,0000 0000 0000 0000 000000
2017-11-20 08:49:25,0.02,2.07,0.00,19.62,23.00,26.25,14.12,49.29,1013.76,2046.41,2640.31,2642.00,2906.48,600.23,601.53,48.55,0000 0000 0000 0000 000000
2017-11-20 08:54:26,0.01,2.07,0.00,19.63,23.02,26.25,14.12,49.24,1013.85,2046.36,2639.96,2641.99,2906.01,600.18,601.40,48.60,0000 0000 0000 0000 000000
2017-11-20 08:59:27,0.03,2.07,0.00,19.63,23.02,26.26,14.08,49.33,1013.99,2046.25,2639.17,2641.77,2905.92,599.85,601.32,48.65,0000 0000 0000 0000 000000
2017-11-20 09:04:28,0.03,2.07,0.00,19.68,23.02,26.21,14.11,49.28,1013.89,2046.15,2638.92,2641.12,2905.13,600.21,601.49,48.71,0000 0000 0000 0000 000000
2017-11-20 09:09:29,0.01,2.07,0.00,19.69,23.03,26.16,14.09,49.29,1013.94,2046.12,2638.13,2641.01,2904.99,600.06,601.24,48.76,0000 0000 0000 0000 000000
2017-11-20 09:14:31,0.01,2.07,0.00,19.65,23.04,26.15,14.08,49.27,1014.10,2046.13,2637.96,2641.00,2904.72,600.08,601.43,48.81,0000 0000 0000 0000 000000
2017-11-20 09:19:32,0.02,2.07,0.00,19.71,23.04,26.18,14.05,49.22,1014.11,2046.07,2637.24,2640.99,2904.07,599.87,601.13,48.86,0000 0000 0000 0000 000000
2017-11-20 09:24:33,0.01,2.07,0.00,19.72,23.06,26.15,14.09,49.23,1014.03,2046.04,2636.99,2640.85,2903.99,600.09,601.33,48.91,0000 0000 0000 0000 000000
2017-11-20 09:29:34,0.04,2.07,0.00,19.73,23.07,26.18,14.14,49.23,1014.02,2046.04,2636.39,2640.26,2903.69,600.04,601.20,48.96,0000 0000 0000 0000 000000
2017-11-20 09:34:36,0.01,2.08,0.00,19.74,23.08,26.15,14.08,49.20,1014.00,2046.02,2636.00,2640.03,2903.06,600.10,601.18,49.01,0000 0000 0000 0000 000000
2017-11-20 09:39:37,0.01,2.08,0.00,19.72,23.09,26.15,14.15,49.19,1014.02,2046.00,2635.41,2640.00,2902.99,600.13,601.29,49.06,0000 0000 0000 0000 000000
2017-11-20 09:44:38,0.00,2.08,0.00,19.77,23.10,26.13,14.09,49.23,1013.95,2046.00,2635.00,2640.00,2902.89,599.66,600.75,49.11,0000 0000 0000 0000 000000
2017-11-20 09:49:39,0.03,2.08,0.00,19.77,23.12,26.19,14.15,49.28,1013.96,2046.00,2634.52,2639.98,2902.16,600.09,601.09,49.16,0000 0000 0000 0000 000000
2017-11-20 09:54:40,0.00,2.08,0.00,19.79,23.13,26.19,14.15,49.17,1013.99,2046.00,2634.00,2639.88,2901.99,600.18,601.20,49.21,0000 0000 0000 0000 000000
2017-11-20 09:59:42,0.05,2.08,0.00,19.78,23.14,26.18,14.07,49.14,1013.98,2046.00,2633.42,2639.39,2901.71,599.95,600.98,49.26,0000 0000 0000 0000 000000
2017-11-20 10:04:43,0.03,2.08,0.00,19.83,23.15,26.18,14.07,49.19,1013.91,2046.00,2632.52,2638.98,2901.01,599.70,600.58,49.31,0000 0000 0000 0000 000000
2017-11-20 10:09:44,0.03,2.08,0.00,19.80,23.17,26.20,14.09,49.33,1013.77,2045.98,2631.99,2638.72,2900.46,599.68,600.52,49.36,0000 0000 0000 0000 000000
2017-11-20 10:14:46,0.03,2.09,0.00,19.86,23.18,26.24,14.11,49.28,1013.70,2045.97,2631.43,2638.18,2900.01,600.16,600.95,49.41,0000 0000 0000 0000 000000
2017-11-20 10:19:46,0.00,2.09,0.00,19.83,23.19,26.24,14.05,49.15,1013.69,2045.96,2630.98,2638.03,2899.99,599.91,600.62,49.46,0000 0000 0000 0000 000000
2017-11-20 10:24:48,0.03,2.09,0.00,19.88,23.20,26.20,14.06,49.21,1013.69,2045.94,2630.18,2638.00,2899.42,600.04,600.67,49.51,0000 0000 0000 0000 000000
2017-11-20 10:29:49,-0.00,2.09,0.00,19.82,23.22,26.23,14.10,49.24,1013.69,2045.87,2629.93,2638.00,2899.03,600.41,601.20,49.56,0000 0000 0000 0000 000000
2017-11-20 10:34:50,-0.02,2.09,0.00,19.87,23.23,26.27,14.03,49.25,1013.67,2045.59,2629.10,2637.95,2898.99,599.95,600.59,49.61,0000 0000 0000 0000 000000
2017-11-20 10:39:52,0.02,2.09,0.00,19.88,23.24,26.26,14.04,49.26,1013.59,2045.34,2628.66,2637.51,2898.49,599.80,600.34,49.66,0000 0000 0000 0000 000000
2017-11-20 10:44:54,0.01,2.09,0.00,19.94,23.25,26.30,13.99,49.18,1013.57,2045.14,2628.02,2637.06,2898.02,599.45,599.96,49.72,0000 0000 0000 0000 000000
2017-11-20 10:49:55,0.01,2.09,0.00,19.90,23.27,26.28,14.12,49.19,1013.51,2045.08,2627.50,2637.00,2897.99,600.55,601.02,49.77,0000 0000 0000 0000 000000
2017-11-20 10:54:56,0.02,2.09,0.00,19.96,23.27,26.37,14.07,49.24,1013.30,2045.05,2626.94,2636.99,2897.39,600.32,600.66,49.82,0000 0000 0000 0000 000000
2017-11-20 10:59:58,0.02,2.09,0.00,19.94,23.29,26.31,14.12,49.29,1013.21,2045.02,2626.14,2636.97,2897.01,600.22,600.44,49.87,0000 0000 0000 0000 000000
2017-11-20 11:04:59,0.02,2.09,0.00,19.96,23.30,26.36,14.07,49.27,1013.20,2045.01,2625.80,2636.75,2896.98,599.85,600.03,49.92,0000 0000 0000 0000 000000
2017-11-20 11:10:00,0.04,2.10,0.00,19.98,23.32,26.39,14.09,49.30,1013.20,2045.00,2625.05,2636.13,2896.47,599.85,599.94,49.97,0000 0000 0000 0000 000000
2017-11-20 11:15:01,0.02,2.10,0.00,19.99,23.32,26.42,14.11,49.27,1013.20,2045.00,2624.46,2636.01,2896.01,600.13,600.28,50.02,0000 0000 0000 0000 000000
2017-11-20 11:20:03,0.00,2.10,0.00,20.02,23.34,26.38,14.03,49.29,1013.19,2045.00,2623.97,2636.00,2896.00,599.65,599.77,50.07,0000 0000 0000 0000 000000
2017-11-20 11:25:04,0.03,2.10,0.00,20.03,23.35,26.37,14.03,49.33,1013.18,2045.00,2623.16,2635.99,2895.65,599.40,599.35,50.12,0000 0000 0000 0000 000000
2017-11-20 11:30:05,0.02,2.10,0.00,20.00,23.37,26.41,14.00,49.23,1013.14,2045.00,2622.93,2635.79,2895.04,600.10,600.15,50.17,0000 0000 0000 0000 000000
2017-11-20 11:35:06,0.03,2.10,0.00,20.03,23.37,26.45,14.10,49.22,1013.00,2044.99,2622.12,2635.11,2894.97,599.90,599.85,50.22,0000 0000 0000 0000 000000
2017-11-20 11:40:07,0.02,2.10,0.00,20.02,23.38,26.43,14.10,49.18,1012.83,2044.99,2621.72,2635.01,2894.49,600.36,600.15,50.27,0000 0000 0000 0000 000000
2017-11-20 11:45:09,0.01,2.10,0.00,20.05,23.39,26.44,14.07,49.22,1012.75,2044.99,2621.02,2634.99,2894.01,600.02,599.71,50.32,0000 0000 0000 0000 000000
2017-11-20 11:50:10,0.02,2.11,0.00,20.06,23.41,26.44,14.08,49.23,1012.71,2044.99,2620.34,2634.95,2893.93,599.82,599.52,50.37,0000 0000 0000 0000 000000
2017-11-20 11:55:11,0.04,2.11,0.00,20.07,23.42,26.50,14.04,49.19,1012.71,2044.98,2619.88,2634.39,2893.24,599.56,599.31,50.42,0000 0000 0000 0000 000000
2017-11-20 12:00:13,0.02,2.11,0.00,20.09,23.44,26.50,14.06,49.26,1012.71,2044.97,2619.09,2634.02,2893.00,600.23,599.81,50.47,0000 0000 0000 0000 000000
2017-11-20 12:05:14,0.01,2.11,0.00,20.04,23.46,26.52,14.10,49.26,1012.71,2044.92,2618.45,2634.00,2892.82,600.18,599.89,50.52,0000 0000 0000 0000 000000
2017-11-20 12:10:15,0.00,2.11,0.00,20.08,23.47,26.52,14.13,49.37,1012.71,2044.85,2617.97,2633.97,2892.11,600.54,600.24,50.57,0000 0000 0000 0000 000000
2017-11-20 12:15:17,0.02,2.11,0.00,20.09,23.49,26.61,14.01,49.27,1012.68,2044.72,2617.23,2633.76,2891.99,599.66,599.20,50.62,0000 0000 0000 0000 000000
2017-11-20 12:20:18,0.02,2.11,0.00,20.10,23.50,26.60,14.00,49.16,1012.50,2044.46,2616.81,2633.14,2891.74,600.03,599.69,50.68,0000 0000 0000 0000 000000
2017-11-20 12:25:20,-0.01,2.11,0.00,20.09,23.52,26.60,14.06,49.24,1012.36,2044.17,2616.04,2633.00,2891.06,599.91,599.20,50.73,0000 0000 0000 0000 000000
2017-11-20 12:30:21,0.01,2.11,0.00,20.12,23.52,26.62,14.05,49.30,1012.27,2044.05,2615.50,2632.99,2890.99,600.17,599.47,50.78,0000 0000 0000 0000 000000
2017-11-20 12:35:22,0.01,2.11,0.00,20.14,23.54,26.73,13.95,49.32,1012.23,2044.03,2614.96,2632.98,2890.54,599.54,598.79,50.83,0000 0000 0000 0000 000000
2017-11-20 12:40:23,0.03,2.11,0.00,20.15,23.55,26.70,14.07,49.38,1012.23,2044.01,2614.14,2632.74,2890.03,599.75,599.17,50.88,0000 0000 0000 0000 000000
2017-11-20 12:45:25,0.02,2.12,0.00,20.14,23.57,26.70,14.12,49.34,1012.22,2044.00,2613.70,2632.19,2889.99,600.21,599.47,50.93,0000 0000 0000 0000 000000
2017-11-20 12:50:26,0.02,2.12,0.00,20.16,23.57,26.70,14.04,49.28,1012.22,2044.00,2613.02,2632.01,2889.40,599.83,599.04,50.98,0000 0000 0000 0000 000000
2017-11-20 12:55:27,0.02,2.12,0.00,20.16,23.60,26.70,14.02,49.29,1012.22,2044.00,2612.30,2632.00,2889.02,599.88,599.09,51.03,0000 0000 0000 0000 000000